Temperature
9 9 9 9 10 10 10 10 10 10 10 9 9 9 9 9 9 9 9 9 9 9 9 9 9 9 9 9 9 9 9 9 9 9 8 8 8 9 9 9 9 9 9
9 9 9 9 9 9 9 9 9 9 9 9 9 9 9 9 9 9 9 9 9 9 9 9 9 9 9 9 9 9 9 9 9 8 8 7 7 8 8 8 8 8 8
9 9 8 8 9 9 9 9 9 9 9 8 8 8 8 8 8 8 8 8 8 8 8 8 8 8 8 8 8 8 8 8 8 8 8 7 8 7 7 7 8 8 8
8 8 8 8 8 8 8 8 8 8 8 8 8 8 8 8 8 8 8 8 7 8 8 8 7 8 8 8 8 8 8 8 8 8 8 8 7 7 7 7 7 7 7
8 8 8 8 8 8 8 8 8 8 8 8 7 7 7 7 7 7 7 7 7 7 7 7 7 7 7 7 7 7 8 8 7 7 7 7 7 7 7 6 6 6 7
7 7 7 7 7 7 8 8 8 7 7 7 7 7 7 7 6 6 7 7 7 7 7 7 7 7 7 7 7 7 7 7 7 7 7 7 7 7 6 6 6 5 6
6 6 7 7 7 7 7 7 7 7 7 7 6 6 6 6 6 6 6 6 6 6 6 6 6 6 6 7 7 7 7 7 7 7 7 7 7 7 6 6 5 5 5
6 6 6 6 6 7 7 7 7 6 6 6 6 6 6 6 6 5 5 6 6 6 6 6 6 6 6 6 6 6 6 6 6 6 6 6 6 6 6 6 5 5 4
5 6 6 6 6 6 6 6 6 6 6 6 5 5 5 5 5 5 5 5 5 5 5 5 5 5 5 6 6 6 6 6 6 6 6 6 6 5 5 5 5 5 4
5 5 5 5 6 6 6 5 5 5 5 5 5 5 5 5 5 4 4 4 5 5 5 5 5 5 5 5 5 5 5 5 5 5 5 5 5 5 5 5 5 4 4
4 4 5 5 5 5 5 5 5 5 5 5 5 5 4 4 4 4 4 4 4 4 4 4 4 5 5 5 4 4 5 5 5 4 4 4 4 4 4 4 4 4 4
4 4 4 4 5 5 5 5 5 5 5 4 4 4 4 4 4 4 4 4 4 4 4 4 4 4 4 4 4 4 4 4 4 4 4 4 4 3 3 3 3 3 3
4 4 4 4 4 4 4 4 4 4 4 4 4 4 3 3 3 3 3 3 3 3 3 3 3 3 4 4 4 3 4 4 4 3 3 3 3 3 3 3 3 3 3
3 3 3 3 4 4 4 4 4 4 4 4 3 3 3 3 3 3 3 3 3 3 3 3 3 3 3 3 3 3 3 3 3 3 3 3 3 3 2 2 2 2 2
3 3 3 3 3 3 3 3 3 3 3 3 3 3 2 2 2 2 2 2 2 2 2 2 2 2 2 2 2 2 2 2 2 2 2 2 2 2 2 2 2 2 1
3 3 3 3 3 3 3 3 3 3 3 3 3 2 2 2 2 2 2 2 2 2 2 2 2 2 2 2 2 2 2 2 2 2 2 2 1 1 1 1 1 1 1
3 3 3 3 3 3 3 3 3 3 2 2 2 2 2 2 2 1 1 1 1 1 1 1 1 1 2 2 1 1 1 1 1 1 1 1 1 1 1 1 1 1 0
2 3 3 3 3 2 2 2 2 2 2 2 2 2 2 2 1 1 1 1 1 1 1 1 1 1 1 1 1 1 1 1 1 1 0 0 0 0 -0 -0 -0 -0 -0
2 2 3 2 2 2 2 2 2 2 1 1 1 1 1 1 1 1 1 1 0 0 0 0 -0 -0 0 0 0 0 0 0 0 0 -0 -0 -0 -1 -1 -1 -1 -1 -1
2 2 2 2 2 2 2 2 1 1 1 1 1 1 1 1 1 0 0 0 -0 -0 -0 -0 -0 -1 -1 -1 -1 -1 -1 -1 -1 -1 -1 -1 -1 -1 -1 -1 -1 -2 -2
2 2 2 2 2 2 2 1 1 1 1 1 0 0 0 0 -0 -0 -0 -0 -1 -1 -1 -1 -1 -1 -1 -1 -1 -1 -2 -1 -1 -2 -2 -2 -2 -2 -2 -2 -2 -2 -2
1 1 1 1 1 1 1 1 1 1 0 0 0 -0 -0 -0 -1 -1 -1 -1 -1 -1 -1 -1 -2 -2 -2 -2 -2 -2 -2 -2 -2 -2 -2 -2 -2 -2 -2 -3 -3 -3 -3
1 1 1 1 1 1 0 0 0 0 -0 -0 -0 -0 -1 -1 -1 -1 -1 -1 -2 -2 -2 -2 -2 -2 -2 -2 -2 -2 -2 -2 -2 -2 -3 -3 -3 -3 -3 -3 -3 -3 -4
0 0 0 0 0 0 -0 -0 -0 -1 -1 -1 -1 -1 -1 -1 -1 -1 -2 -2 -2 -2 -2 -2 -3 -3 -3 -3 -3 -3 -3 -3 -3 -3 -3 -3 -3 -4 -4 -4 -4 -4 -4
-0 -0 -0 -0 -0 -0 -0 -0 -1 -1 -1 -1 -1 -1 -1 -1 -1 -2 -2 -2 -2 -2 -3 -3 -3 -3 -3 -3 -3 -3 -4 -4 -4 -4 -4 -4 -4 -4 -4 -4 -4 -4 -5
-1 -1 -1 -1 -1 -1 -1 -1 -1 -1 -1 -1 -1 -2 -2 -2 -2 -2 -2 -2 -3 -3 -3 -3 -3 -3 -3 -4 -4 -4 -4 -4 -4 -4 -4 -4 -4 -4 -4 -5 -5 -5 -5
Wind_Speed
5 4 4 4 4 4 4 4 4 4 3 3 3 2 2 2 1 1 1 1 1 2 2 2 3 3 3 4 4 4 5 4 3 3 2 2 2 2 2 3 3 3 3
5 5 4 4 5 5 5 5 5 4 4 3 3 2 2 2 2 1 1 1 1 1 2 3 3 3 3 4 4 4 4 3 4 3 3 3 3 3 3 3 3 3 3
7 6 6 5 5 5 5 4 5 4 4 4 3 2 1 1 1 1 1 1 2 2 2 3 3 3 3 4 4 4 5 4 4 4 3 3 4 3 3 4 4 4 3
7 6 6 6 6 5 5 5 5 5 5 4 5 5 4 3 2 2 2 1 2 2 2 3 3 3 3 3 4 4 4 5 5 4 3 3 2 2 2 3 4 4 4
6 6 6 6 5 5 4 4 5 5 5 5 6 6 5 3 2 2 2 2 1 1 2 2 3 3 3 3 4 4 4 4 5 4 3 3 3 3 3 3 3 3 3
4 4 4 5 4 4 4 4 5 5 5 5 5 6 6 4 4 3 3 2 2 1 2 2 2 3 3 3 3 4 4 4 4 4 3 3 3 3 4 4 4 4 3
4 4 5 5 5 4 4 4 5 5 5 5 5 5 5 5 5 4 4 3 2 2 2 2 2 2 3 3 3 3 4 4 5 5 4 4 3 3 3 4 4 4 3
3 4 4 5 5 5 4 4 5 5 5 5 5 5 5 4 3 4 3 3 3 3 3 2 2 3 3 3 3 3 4 4 4 5 5 3 3 3 3 4 4 4 4
3 3 3 4 4 4 4 5 5 5 5 5 5 4 5 4 4 3 3 3 3 2 3 3 3 3 3 3 3 2 3 3 4 4 4 4 3 3 3 4 4 4 4
1 2 3 3 3 3 4 3 4 4 5 5 4 4 4 4 4 4 4 3 3 3 3 3 3 3 3 3 3 3 3 3 3 3 4 4 3 3 3 4 4 4 5
2 2 3 3 3 2 3 3 3 3 4 4 4 4 4 4 4 4 4 3 3 3 3 3 4 3 3 3 3 3 3 3 3 3 4 4 4 3 3 3 3 4 4
3 3 3 2 2 3 2 3 3 3 3 4 4 4 4 4 4 4 4 3 3 3 3 3 3 3 3 3 3 3 4 4 5 5 4 4 4 4 4 3 4 4 4
3 3 3 3 3 2 2 3 3 3 3 3 4 4 4 4 4 4 4 4 4 3 3 3 3 3 3 3 4 4 4 4 5 5 6 5 5 5 4 4 4 4 3
4 4 4 4 3 3 3 2 2 2 3 4 4 4 5 5 4 4 4 4 4 3 3 3 3 3 3 3 3 3 4 3 4 4 5 5 6 6 5 4 5 4 4
5 5 5 5 4 4 3 3 3 3 3 4 4 5 4 4 4 4 4 4 4 4 4 3 3 3 3 3 3 3 3 3 3 3 3 4 4 5 5 4 5 5 4
6 6 6 5 5 5 4 4 3 3 3 4 4 4 4 4 4 5 4 4 4 3 3 3 3 3 2 3 4 3 3 3 3 3 2 2 4 4 5 6 6 6 6
6 6 6 6 6 5 5 4 4 3 4 4 4 3 4 4 4 4 4 4 4 3 4 3 3 3 3 3 4 3 3 3 3 3 3 2 2 3 3 4 5 5 6
7 6 5 5 5 4 4 3 3 3 4 4 4 4 4 4 4 4 4 4 4 4 4 4 3 3 3 4 4 3 3 3 3 3 3 2 2 2 3 3 3 4 4
7 6 5 5 4 4 3 3 3 3 4 4 4 4 4 4 4 5 5 4 4 4 3 3 3 4 4 4 4 3 2 2 2 3 3 3 3 3 3 4 4 4 4
5 4 3 3 3 3 3 4 4 4 5 5 5 4 4 5 5 5 4 4 4 4 3 3 3 4 4 4 4 4 2 2 2 2 3 4 4 4 4 4 4 4 4
4 3 2 3 3 3 3 4 4 5 5 4 4 4 5 5 5 5 4 4 4 4 4 4 3 4 4 4 5 4 3 3 2 2 2 3 4 4 4 4 3 4 3
4 3 2 3 2 2 3 4 5 4 3 3 4 4 4 4 4 4 4 4 4 4 4 3 3 3 3 3 4 5 4 3 3 3 3 3 4 4 4 4 3 3 3
4 3 3 3 3 3 3 4 4 3 3 3 4 4 4 4 4 5 5 4 4 4 4 3 3 3 2 3 4 5 5 4 3 3 3 4 4 3 3 4 4 3 2
4 3 3 4 4 4 4 4 3 3 3 4 4 4 4 4 4 4 4 4 5 5 4 4 4 3 3 3 3 3 3 4 3 3 3 3 3 3 3 3 3 2 2
4 4 4 5 5 4 4 3 3 3 4 4 4 4 4 4 4 4 4 5 5 5 5 4 4 4 4 4 5 4 3 3 3 2 2 2 2 2 3 3 2 2 3
4 4 5 5 5 4 4 4 3 4 4 4 4 4 4 3 3 3 3 3 5 5 6 5 5 4 5 5 6 6 6 5 4 4 3 3 3 4 4 4 3 3 4
Wind_Direction
232 215 210 206 202 199 201 203 198 195 192 195 197 198 208 212 208 222 240 239 248 243 234 227 219 221 216 209 205 199 193 193 188 186 189 191 204 215 226 213 204 196 202
224 212 206 203 203 199 200 201 200 199 199 200 202 207 209 215 221 215 227 242 249 238 234 231 224 223 221 210 206 196 195 194 194 201 199 211 210 214 231 229 219 213 201
224 216 211 208 206 202 204 204 201 199 199 195 183 171 184 213 218 228 233 245 251 243 229 231 226 224 226 220 211 206 209 202 199 206 215 222 227 210 203 217 221 221 216
226 218 216 213 212 210 205 205 203 201 198 194 190 188 198 212 227 226 234 242 246 246 234 224 221 222 229 230 218 213 219 210 203 204 224 247 254 219 200 204 222 228 228
225 220 219 217 211 205 198 197 198 201 199 200 202 203 206 212 212 210 215 220 238 242 232 224 218 219 223 229 222 213 212 213 209 207 211 217 230 241 232 229 222 226 230
222 222 218 208 200 192 188 188 191 198 199 203 208 211 209 207 203 207 211 222 226 233 228 219 213 211 213 221 221 211 212 216 213 211 210 212 211 218 228 235 234 240 240
219 213 209 203 198 193 190 189 191 198 201 201 209 214 213 210 211 211 212 212 218 236 229 219 213 210 209 210 213 210 213 217 213 212 216 222 230 230 228 229 240 247 251
228 222 212 206 198 193 193 195 198 203 203 202 208 209 205 207 211 211 211 212 216 223 224 219 215 209 205 208 212 217 219 211 212 215 216 222 230 227 229 227 234 241 245
243 233 213 204 196 193 198 200 202 207 206 204 206 204 202 202 205 209 213 214 211 210 209 211 214 215 208 208 211 218 224 213 213 217 219 223 229 229 232 229 229 233 244
251 236 214 202 202 200 199 198 201 210 211 207 205 206 207 207 207 208 210 215 213 205 205 207 212 214 210 212 213 217 221 216 216 215 217 225 234 233 232 230 231 236 240
245 238 221 208 203 200 197 197 199 204 206 205 204 204 205 205 207 211 211 212 214 211 209 208 209 210 211 211 213 214 216 217 218 218 217 220 228 233 235 233 233 235 236
238 229 220 209 202 203 203 204 205 205 207 204 202 206 204 201 206 214 212 208 210 210 213 213 211 211 212 213 216 219 217 220 220 220 219 222 220 227 235 233 236 240 240
241 235 232 226 218 218 217 216 215 212 206 200 202 205 204 203 208 214 212 209 208 207 214 219 220 217 217 219 221 220 219 224 226 222 221 222 218 223 231 233 233 240 244
247 243 243 242 236 233 231 231 231 225 213 201 203 208 208 206 208 212 212 213 211 210 216 225 223 218 216 217 218 220 220 228 235 229 226 223 221 222 228 233 233 232 235
261 251 247 247 244 243 242 238 232 226 213 205 208 213 212 208 205 207 211 211 212 218 220 214 213 211 207 209 209 212 215 222 236 234 237 235 230 231 233 235 233 228 230
270 264 257 253 248 244 240 234 228 222 212 211 216 211 207 205 206 206 204 201 203 209 211 208 208 212 210 209 215 219 218 218 226 232 241 247 236 231 238 242 240 234 230
272 266 260 253 248 245 239 233 228 216 211 217 220 213 206 205 206 202 201 201 203 207 211 215 210 211 209 205 214 224 231 224 224 227 230 238 249 242 243 239 237 237 240
274 270 265 258 252 248 238 228 221 212 212 217 219 216 209 208 206 206 209 209 206 207 211 215 217 217 212 206 211 216 231 229 231 229 227 234 244 237 248 244 240 242 241
278 272 264 256 249 242 231 216 217 217 219 221 221 218 211 208 207 209 212 210 204 207 210 213 214 217 215 210 213 217 222 224 237 243 240 240 244 234 245 244 237 244 246
289 284 278 264 243 236 216 211 223 222 228 229 227 221 215 211 212 213 214 212 206 209 209 217 223 226 225 215 218 211 217 221 232 243 244 239 245 244 248 246 233 236 249
297 291 276 258 244 230 212 220 231 234 238 235 228 223 219 217 214 211 211 207 204 204 209 219 230 235 237 228 225 219 221 224 231 239 247 245 245 254 254 259 255 245 244
306 293 276 273 267 238 221 231 241 244 242 231 225 224 222 217 212 205 207 206 202 203 211 219 231 240 243 239 232 224 231 244 242 243 246 243 247 260 271 268 256 249 250
298 287 270 275 278 256 233 239 248 239 229 225 226 225 221 217 211 207 205 205 205 206 212 217 226 234 235 235 236 231 233 239 248 253 251 251 249 262 268 258 249 251 251
288 284 276 275 280 274 260 252 255 238 222 225 227 221 216 215 211 209 208 209 209 210 213 218 223 227 228 228 225 224 223 229 241 248 244 244 248 253 253 250 243 244 249
285 278 269 269 275 279 272 267 254 233 226 226 226 223 220 216 213 215 215 217 220 217 216 221 224 224 231 233 229 227 226 226 225 220 227 227 231 239 244 247 243 240 242
281 279 277 274 276 275 271 265 247 230 220 223 225 223 218 214 212 213 225 226 229 225 229 235 235 236 238 239 234 231 234 231 218 215 226 230 233 237 242 244 246 246 246
Height
1490 1491 1491 1492 1493 1494 1495 1496 1497 1498 1499 1500 1501 1502 1502 1503 1504 1504 1505 1506 1506 1506 1507 1508 1509 1510 1511 1512 1513 1515 1516 1517 1518 1520 1520 1521 1521 1522 1522 1523 1524 1525 1526
1487 1487 1488 1489 1490 1491 1492 1493 1493 1494 1495 1496 1497 1498 1499 1500 1501 1501 1502 1502 1503 1503 1504 1505 1506 1507 1508 1509 1510 1511 1512 1513 1515 1517 1518 1519 1520 1518 1519 1520 1521 1522 1523
1482 1483 1484 1485 1487 1488 1489 1489 1490 1491 1492 1493 1494 1495 1496 1497 1498 1498 1499 1499 1500 1501 1501 1502 1503 1504 1505 1506 1507 1508 1509 1510 1511 1513 1515 1516 1516 1517 1516 1516 1517 1518 1519
1479 1480 1481 1482 1483 1484 1485 1486 1487 1488 1489 1490 1491 1492 1492 1493 1494 1495 1496 1496 1497 1498 1498 1499 1500 1501 1502 1503 1504 1505 1506 1507 1508 1509 1511 1512 1513 1514 1514 1514 1515 1515 1516
1476 1477 1478 1479 1480 1481 1482 1483 1484 1485 1486 1486 1487 1488 1489 1490 1491 1492 1492 1493 1493 1494 1495 1496 1497 1498 1498 1499 1501 1502 1503 1503 1504 1505 1506 1508 1509 1510 1511 1511 1512 1512 1512
1473 1474 1475 1476 1477 1478 1479 1480 1481 1482 1483 1484 1484 1485 1486 1487 1488 1489 1489 1489 1490 1491 1492 1492 1493 1494 1495 1496 1497 1499 1499 1500 1501 1502 1503 1504 1505 1506 1507 1508 1508 1508 1508
1471 1471 1472 1473 1474 1475 1476 1477 1478 1479 1480 1481 1481 1482 1483 1484 1485 1485 1486 1486 1487 1487 1488 1489 1490 1491 1491 1493 1494 1495 1496 1496 1497 1498 1499 1501 1502 1503 1504 1504 1504 1505 1504
1469 1469 1470 1470 1471 1472 1473 1474 1475 1476 1477 1477 1478 1479 1480 1481 1481 1482 1483 1483 1484 1485 1485 1486 1487 1487 1488 1489 1490 1491 1492 1493 1494 1495 1496 1497 1498 1499 1500 1501 1501 1501 1501
1467 1467 1468 1468 1469 1470 1471 1472 1472 1473 1474 1474 1475 1476 1477 1478 1478 1479 1480 1480 1481 1482 1482 1483 1484 1485 1485 1486 1487 1488 1488 1489 1490 1491 1492 1493 1494 1495 1496 1497 1498 1499 1498
1466 1466 1466 1466 1467 1468 1469 1469 1470 1470 1471 1471 1472 1473 1474 1475 1476 1476 1477 1478 1478 1479 1479 1480 1481 1482 1482 1483 1484 1484 1485 1485 1486 1487 1487 1488 1489 1490 1491 1492 1493 1494 1494
1464 1464 1464 1465 1465 1465 1466 1467 1467 1468 1468 1468 1469 1470 1471 1472 1473 1474 1474 1475 1475 1476 1476 1477 1478 1478 1479 1480 1480 1480 1481 1482 1482 1483 1483 1484 1485 1486 1487 1488 1488 1489 1490
1463 1463 1463 1463 1463 1463 1463 1464 1464 1465 1465 1466 1466 1467 1468 1469 1470 1470 1471 1471 1472 1473 1473 1474 1474 1475 1475 1476 1477 1477 1478 1478 1479 1479 1480 1480 1481 1482 1482 1483 1484 1484 1485
1461 1461 1461 1460 1460 1460 1461 1461 1461 1461 1462 1462 1463 1464 1464 1465 1466 1467 1468 1468 1469 1469 1470 1470 1471 1471 1472 1473 1473 1474 1474 1474 1475 1475 1476 1476 1477 1477 1478 1479 1479 1480 1480
1459 1458 1458 1458 1458 1458 1458 1458 1458 1458 1459 1459 1460 1460 1461 1462 1463 1464 1464 1465 1466 1466 1467 1467 1468 1468 1469 1469 1469 1470 1470 1471 1471 1471 1472 1472 1473 1473 1473 1474 1475 1475 1475
1456 1456 1456 1456 1455 1455 1455 1455 1455 1456 1456 1456 1457 1457 1458 1459 1460 1460 1461 1462 1463 1463 1464 1464 1464 1465 1465 1465 1466 1466 1466 1467 1467 1467 1468 1468 1468 1469 1469 1470 1470 1470 1471
1453 1453 1453 1452 1452 1452 1452 1452 1453 1453 1453 1453 1454 1454 1455 1456 1456 1457 1458 1459 1459 1460 1460 1460 1461 1461 1461 1462 1462 1462 1462 1463 1463 1463 1463 1464 1464 1465 1465 1465 1466 1466 1466
1450 1449 1449 1449 1449 1449 1450 1449 1450 1450 1450 1450 1451 1451 1452 1452 1453 1454 1455 1455 1456 1456 1456 1457 1457 1457 1457 1458 1458 1458 1458 1459 1459 1459 1460 1460 1460 1460 1460 1461 1461 1461 1462
1447 1446 1446 1446 1446 1446 1446 1447 1447 1447 1447 1448 1448 1449 1449 1449 1450 1450 1451 1452 1452 1453 1453 1453 1453 1453 1453 1454 1454 1455 1455 1455 1455 1456 1456 1456 1456 1456 1457 1457 1457 1457 1458
1444 1444 1443 1443 1443 1443 1444 1444 1444 1444 1444 1445 1445 1446 1446 1446 1446 1447 1447 1448 1449 1449 1449 1449 1449 1449 1450 1450 1451 1451 1451 1451 1451 1452 1453 1453 1453 1453 1453 1453 1453 1453 1453
1441 1440 1440 1440 1440 1441 1441 1441 1440 1441 1441 1442 1442 1442 1442 1443 1443 1443 1444 1445 1445 1445 1446 1446 1446 1446 1446 1447 1447 1448 1448 1448 1448 1448 1449 1449 1449 1450 1450 1449 1449 1449 1449
1438 1437 1437 1437 1437 1437 1438 1437 1437 1438 1438 1439 1439 1439 1439 1439 1440 1440 1441 1441 1442 1442 1442 1442 1442 1443 1443 1444 1444 1444 1445 1445 1445 1445 1446 1446 1446 1446 1446 1446 1446 1445 1446
1435 1435 1434 1434 1434 1434 1434 1434 1434 1434 1435 1435 1435 1435 1435 1436 1436 1437 1437 1438 1438 1438 1438 1439 1439 1439 1440 1440 1441 1441 1442 1442 1442 1442 1443 1443 1443 1443 1443 1442 1442 1442 1442
1434 1433 1432 1431 1431 1431 1431 1431 1431 1431 1431 1431 1431 1432 1432 1432 1433 1433 1434 1434 1434 1434 1435 1435 1435 1436 1437 1437 1438 1438 1438 1439 1439 1439 1439 1440 1440 1439 1439 1439 1439 1439 1439
1431 1430 1429 1428 1428 1428 1427 1427 1427 1427 1427 1427 1427 1428 1428 1428 1429 1429 1430 1430 1430 1430 1431 1431 1432 1432 1433 1434 1435 1435 1435 1435 1436 1436 1436 1437 1436 1436 1436 1436 1436 1435 1435
1428 1427 1426 1425 1424 1424 1423 1423 1423 1423 1423 1423 1423 1424 1424 1425 1425 1426 1426 1426 1427 1427 1428 1428 1429 1429 1430 1430 1431 1431 1432 1432 1433 1433 1433 1433 1433 1433 1432 1432 1432 1431 1431
1425 1424 1423 1422 1421 1420 1419 1419 1419 1419 1419 1419 1419 1420 1420 1421 1421 1422 1422 1422 1423 1424 1424 1425 1426 1426 1427 1427 1428 1428 1429 1429 1430 1430 1429 1429 1429 1429 1428 1428 1428 1428 1427